Location: Newark
(49.3000°N, 9.4667°E)
Time: 23:41:09
(UTC+00:00)

Transit 2A Rocket - Pass Details

Date: 28 May 2019
Orbit: 586 x 917 km, 66.7° (Epoch: 17 June)

Event Time Altitude Azimuth Distance (km) Brightness Sun altitude
Rises 23:54:39 0° 324° (NW) 3,454 9.1 -18.9°
Reaches altitude 10° 23:57:15 10° 326° (NW) 2,472 8.3 -18.8°
Maximum altitude 00:02:57 77° 52° (NE) 815 5.2 -18.7°
Enters shadow 00:06:57 17° 137° (SE) 1,806 6.6 -18.5°
